Location: Clanezzo
(45.7500°N, 9.6000°E)
Time: 09:24:13
(UTC+00:00)

CUTE-I - Pass Details

Date: 11 December 2023
Orbit: 807 x 822 km, 98.7° (Epoch: 23 February)

Event Time Altitude Azimuth Distance (km) Brightness Sun altitude
Rises 17:46:32 0° 199° (SSW) 3,316 ? -21.6°
Reaches altitude 10° 17:49:16 10° 212° (SSW) 2,392 ? -22.1°
Maximum altitude 17:53:34 25° 267° (W) 1,596 ? -22.8°
Drops below altitude 10° 17:57:55 10° 321° (NW) 2,415 ? -23.6°
Sets 18:00:42 0° 335° (NNW) 3,356 ? -24.1°
